Theta_e
322 321 321 324 329 331 332 332 327 331 331 331 332 331 336 338 344 347 335 338 338 337 332 332 334 332 333 329 332 337 336 336 336 336 337 336 336 336 336 332 331 331 331 330 329 329 328 329 327
321 320 322 327 327 331 330 327 330 330 329 330 330 332 333 340 338 335 337 337 337 334 333 332 332 331 331 328 330 334 335 335 335 337 336 336 335 334 334 331 331 329 330 329 328 328 327 324 323
318 319 326 328 326 328 329 327 328 329 329 331 331 331 337 340 335 335 336 335 336 334 333 326 329 331 330 330 329 331 332 333 335 336 335 335 332 330 331 329 329 329 328 328 328 327 327 326 323
318 324 325 325 325 324 327 328 329 329 329 327 328 336 336 336 336 336 335 334 336 334 328 326 333 334 330 328 330 329 331 332 333 333 332 331 329 328 329 329 328 328 329 328 327 324 321 321 322
320 325 330 326 326 323 324 327 328 328 326 326 329 336 338 336 336 336 333 333 337 334 327 324 331 330 329 327 328 328 329 332 331 330 329 329 329 329 327 328 329 328 329 326 321 319 318 318 319
328 326 330 333 324 322 322 327 327 326 326 327 328 337 338 336 336 336 333 332 337 333 332 324 329 330 328 326 327 327 327 327 327 326 325 327 328 328 326 327 328 328 326 323 320 320 319 317 317
329 329 330 333 323 323 324 326 327 325 325 326 328 337 338 336 335 336 333 331 336 334 330 325 322 329 327 326 327 326 326 327 327 326 326 325 326 327 326 326 327 327 327 323 320 320 320 319 318
328 330 331 330 325 325 326 327 326 324 327 328 329 334 339 336 334 335 332 331 335 335 333 330 326 322 323 325 326 327 325 325 323 323 324 324 325 326 325 325 325 326 323 322 321 320 319 320 319
325 335 335 330 329 323 326 325 324 322 326 328 328 331 335 336 334 335 332 331 334 335 334 332 331 331 327 324 326 328 328 324 320 318 322 324 325 324 325 324 324 323 322 321 320 319 322 323 321
331 336 337 332 327 324 325 325 322 324 326 327 328 332 337 336 335 335 333 332 332 333 333 334 331 332 331 328 323 324 325 325 324 323 326 325 326 326 323 324 323 323 322 320 318 319 323 323 323
334 339 335 335 323 319 324 325 323 323 326 325 327 332 337 336 335 335 334 332 331 332 334 333 333 331 331 331 329 328 326 329 328 327 327 325 325 325 321 323 323 322 322 322 321 322 322 322 322
327 333 335 333 318 318 320 321 322 321 321 318 323 331 336 334 335 335 334 333 332 331 333 333 333 334 331 331 330 330 330 328 328 328 327 326 324 324 322 322 325 325 324 323 322 319 317 320 319
326 328 329 317 317 317 316 318 319 320 320 317 325 331 336 335 336 335 334 333 332 331 329 332 331 332 334 332 331 330 332 330 328 327 327 327 327 325 324 322 320 322 323 321 321 319 320 319 318
327 327 324 318 316 316 317 317 316 317 317 316 323 329 332 333 335 335 335 333 332 330 329 328 331 331 333 333 330 330 330 331 330 328 326 328 328 328 325 323 322 320 318 318 318 319 321 320 319
323 329 323 318 322 322 318 320 317 316 317 316 319 326 329 331 335 335 335 334 332 331 330 329 329 330 331 333 330 331 330 330 331 330 328 327 329 329 327 326 324 323 321 322 323 321 320 321 321
322 323 329 325 321 319 318 333 327 318 317 317 317 318 325 330 332 334 334 334 334 332 331 329 328 330 330 331 331 329 330 330 327 330 330 328 328 329 328 327 327 326 325 324 325 324 324 324 323
324 327 327 328 324 317 318 329 328 327 319 318 316 317 320 324 329 332 333 334 334 333 332 331 328 328 330 330 330 330 328 329 328 326 329 330 329 329 329 327 327 327 326 325 325 326 325 325 325
328 328 326 328 325 323 318 320 323 323 319 319 318 318 317 322 325 330 331 332 333 333 333 332 329 328 329 330 330 330 329 329 328 328 327 329 329 329 328 328 328 328 325 324 323 323 322 321 321
327 330 332 329 321 321 322 322 322 322 323 316 316 318 318 320 324 329 330 331 332 333 333 333 331 329 327 329 329 329 329 329 329 329 329 328 329 329 328 328 329 327 324 323 322 322 321 321 320
329 332 334 327 315 317 320 321 321 320 321 322 320 319 317 317 319 325 330 331 332 332 333 333 332 331 330 328 329 328 328 329 328 329 329 329 329 329 328 328 329 326 324 323 322 322 322 321 321
330 331 333 335 319 317 317 320 320 320 319 317 316 315 315 315 315 319 326 330 332 332 333 333 333 332 332 330 329 329 329 329 330 330 329 329 329 329 329 328 329 326 324 324 324 323 323 323 322
331 325 328 329 323 325 319 323 321 320 321 320 317 312 312 312 313 314 323 327 331 332 333 333 333 333 334 333 331 330 331 330 330 331 331 331 330 329 329 328 327 326 325 325 325 325 324 324 323
326 322 323 322 324 324 324 321 318 317 318 320 320 317 313 311 311 312 317 325 329 330 332 333 333 334 334 334 333 332 331 331 332 331 332 332 331 331 328 327 327 326 326 326 326 326 326 326 325
319 319 320 320 321 324 322 320 316 316 317 317 319 320 319 316 314 311 315 322 326 329 330 331 332 333 333 334 334 334 333 332 332 332 333 333 333 332 332 329 327 328 328 327 327 324 325 325 325
319 319 321 324 323 321 311 318 316 316 317 317 317 315 315 313 315 315 310 313 322 326 329 330 331 331 332 333 334 334 334 333 332 332 332 333 334 333 333 332 329 328 329 328 327 324 324 323 323
319 321 321 321 321 317 310 315 314 315 314 313 312 311 309 311 308 308 312 313 314 320 326 330 331 331 331 331 333 334 335 334 333 333 333 333 334 334 333 333 333 330 329 329 327 325 323 322 322
320 322 317 315 305 316 315 315 315 314 314 314 312 310 309 309 310 309 309 311 312 313 315 321 327 329 330 330 331 332 334 334 334 333 333 334 334 334 333 333 333 332 330 329 327 325 323 323 324
319 317 318 318 315 317 316 317 315 315 314 311 311 310 310 310 309 308 307 309 309 309 310 310 310 313 319 326 327 330 332 333 333 333 332 332 332 331 332 333 332 331 330 329 327 324 323 323 323
313 319 316 317 318 321 320 315 313 312 312 310 308 309 309 310 309 307 308 310 310 310 309 309 309 310 310 310 314 322 328 330 331 329 329 329 330 330 330 331 330 330 329 328 325 324 322 322 322
313 317 316 317 320 317 317 316 310 310 309 307 308 309 309 310 308 307 308 309 309 310 311 312 311 311 311 312 313 317 322 324 326 325 325 325 326 326 328 329 328 327 327 326 324 322 321 321 320
Wind_Speed
17 13 14 7 1 3 5 3 8 7 5 3 8 6 6 9 6 9 14 22 20 16 14 13 12 11 11 11 12 14 15 15 16 16 18 18 17 18 19 20 19 20 20 20 20 19 19 19 19
18 13 5 3 2 3 4 8 7 6 8 8 6 2 5 6 6 13 13 19 20 17 13 12 12 11 10 12 15 15 14 16 17 16 17 17 17 18 18 19 19 19 20 20 20 19 19 18 20
16 11 2 2 4 4 5 8 10 9 7 5 5 7 5 5 11 13 21 20 23 19 14 14 13 12 13 14 15 16 15 13 18 19 19 18 17 17 17 17 16 18 18 19 19 19 19 18 21
9 3 3 1 8 5 7 7 13 8 3 5 4 8 6 3 5 16 22 19 20 18 14 17 14 15 13 13 14 16 15 14 15 15 16 17 18 17 16 15 16 14 17 18 18 19 18 18 19
5 3 4 4 1 7 5 9 10 8 8 6 2 6 7 7 16 24 22 20 21 18 17 18 17 13 12 13 12 13 13 14 14 12 12 15 17 17 13 14 13 12 16 17 18 19 18 18 18
3 2 3 5 2 7 3 4 8 6 7 7 5 8 5 10 20 19 20 21 20 18 17 17 17 14 12 12 12 13 13 13 14 13 13 14 16 17 12 13 12 12 13 14 15 16 17 18 18
1 3 6 6 7 5 5 5 6 6 8 5 5 7 6 12 20 18 18 19 20 19 16 16 17 15 13 12 12 12 13 14 14 14 16 16 17 14 13 12 10 10 12 12 12 13 14 16 18
3 2 5 4 3 3 4 5 3 8 5 2 5 5 6 12 22 19 18 17 19 21 17 17 15 15 15 14 14 14 12 14 13 13 14 14 17 16 14 11 8 10 10 10 10 11 12 13 14
2 4 4 7 3 5 6 5 2 1 6 3 3 5 12 29 23 20 19 16 17 18 20 18 17 13 12 14 15 14 12 11 13 14 13 13 13 12 11 10 8 9 10 10 9 10 11 12 13
4 4 6 11 6 1 6 6 8 5 8 4 6 10 24 26 23 20 21 18 19 16 19 20 18 17 12 11 15 13 13 11 10 14 12 11 11 9 11 12 9 9 8 7 7 8 9 7 7
3 4 9 11 6 8 4 4 4 4 6 8 10 10 19 21 19 19 20 20 20 18 17 18 19 19 17 13 13 10 12 10 9 9 10 12 11 11 8 9 6 6 6 5 5 5 3 4 5
5 6 5 6 1 1 3 2 5 6 3 5 5 20 19 18 20 21 21 22 23 21 22 18 20 19 19 15 15 13 11 12 12 12 11 11 9 9 6 6 6 5 6 6 4 1 3 4 3
7 5 10 2 3 3 2 4 2 7 6 8 10 16 15 16 19 21 21 20 22 22 23 19 21 19 20 19 17 15 14 12 10 11 12 10 9 11 10 9 8 7 7 5 3 1 2 2 2
6 7 7 7 5 3 4 5 3 8 9 10 9 11 12 13 20 20 23 26 27 25 24 24 21 21 19 18 20 18 16 12 12 11 12 11 10 9 10 9 8 8 6 6 5 2 1 0 1
2 7 6 6 5 4 5 8 7 8 3 8 9 10 10 14 22 24 25 25 26 27 26 26 27 23 22 17 18 16 16 18 18 14 12 14 12 9 9 7 8 7 7 5 5 4 3 2 1
3 1 5 6 9 4 5 8 11 11 9 9 10 9 10 15 26 27 27 25 25 26 27 27 27 27 24 23 18 20 16 17 20 20 15 15 15 12 11 8 8 8 7 5 3 2 2 2 2
6 4 6 4 14 6 7 2 7 9 11 9 8 10 10 9 14 24 27 29 28 29 28 28 28 29 28 24 22 18 21 20 18 16 20 17 17 16 13 12 11 12 10 7 7 7 5 4 4
5 4 7 7 7 8 7 10 8 5 2 7 8 8 10 11 12 22 28 28 28 28 27 29 30 30 28 27 24 23 20 20 19 19 17 19 20 20 19 16 16 16 14 12 10 9 8 8 8
14 12 8 12 5 5 9 9 11 10 8 8 8 8 7 11 18 28 27 27 28 28 29 30 31 30 29 30 30 28 28 26 23 22 21 20 22 21 21 20 19 17 16 14 11 11 11 10 9
9 12 9 5 6 2 7 11 9 10 10 10 9 9 9 7 10 20 29 31 33 34 35 33 33 32 34 33 34 32 30 28 28 25 25 25 24 24 23 23 23 19 17 16 16 16 16 14 13
14 11 9 6 5 5 6 10 11 11 11 9 10 8 9 9 9 9 20 29 28 31 36 38 38 37 35 32 30 24 24 24 24 26 27 29 28 27 26 24 26 22 22 22 22 22 22 19 13
16 11 9 8 4 2 6 5 5 5 16 17 13 11 12 10 8 8 19 26 31 34 31 33 35 35 35 34 31 31 29 25 29 30 31 30 30 32 31 29 26 28 26 25 25 24 23 23 21
5 9 4 6 1 6 5 2 6 7 6 8 18 14 13 12 10 10 14 28 35 34 37 38 35 35 34 36 34 35 32 32 28 30 32 33 34 31 35 35 32 30 29 28 25 25 25 25 26
8 10 7 3 2 6 10 8 5 6 7 8 4 10 14 11 11 12 25 24 29 33 36 35 35 38 39 39 42 38 34 29 27 30 29 32 33 33 33 36 35 33 31 28 25 21 21 21 22
8 12 3 2 4 6 5 8 10 5 3 2 1 6 4 3 4 7 10 16 24 30 35 36 34 34 32 33 34 37 33 32 30 30 29 27 30 33 34 35 37 35 34 31 27 23 20 20 20
20 13 5 7 5 4 4 7 6 8 2 5 3 3 6 4 2 4 4 17 21 24 27 30 31 33 31 33 36 34 33 31 32 30 28 28 29 31 32 31 33 38 37 33 30 25 22 19 19
14 16 5 6 0 2 5 6 7 10 4 4 7 7 7 6 7 8 6 6 16 21 26 29 31 32 31 32 35 34 34 35 33 29 29 29 29 29 27 28 30 34 35 34 31 26 23 20 18
18 11 5 2 5 5 5 4 6 4 7 6 5 5 3 4 5 3 2 5 5 8 12 18 25 31 34 32 29 35 34 33 35 30 28 28 28 26 25 26 26 26 30 32 30 27 23 21 19
6 15 6 5 4 5 1 5 6 9 8 8 7 6 5 3 2 2 3 4 2 5 8 10 14 16 16 22 26 25 26 27 29 29 29 28 26 26 24 26 25 26 28 30 31 27 23 22 19
6 12 4 5 6 2 3 5 3 9 9 9 8 7 5 3 3 2 2 2 4 5 6 8 10 12 14 14 18 20 20 22 23 24 26 28 29 28 27 24 24 26 27 29 28 26 23 22 22
Wind_Direction
328 327 309 288 318 226 120 80 97 90 113 74 47 37 66 47 23 118 144 116 121 118 109 123 123 118 112 102 119 107 95 99 97 99 96 95 91 92 90 86 84 84 81 78 78 77 77 78 79
326 341 271 270 228 248 101 121 126 100 87 97 93 298 37 72 82 115 122 129 122 117 117 121 128 128 112 106 117 118 106 95 95 101 98 95 95 96 95 84 87 84 78 77 75 73 74 77 86
321 295 298 283 258 354 113 147 109 87 114 151 111 63 15 79 126 145 134 127 125 116 130 118 115 127 108 105 107 112 114 119 104 96 96 96 94 100 98 91 93 89 81 78 76 75 78 82 91
325 224 265 261 274 40 92 117 105 115 57 1 66 85 84 271 141 133 135 132 125 122 128 125 113 121 110 107 107 108 116 120 112 102 101 98 101 102 98 95 97 94 88 82 79 77 78 83 91
284 278 274 234 291 86 6 102 124 159 155 158 248 89 103 38 112 137 136 131 123 127 131 133 129 126 119 118 117 115 116 114 117 114 112 114 109 104 99 103 102 95 87 82 79 76 76 83 89
306 269 250 237 166 90 82 94 144 137 117 82 128 98 103 135 138 142 140 136 134 130 135 136 143 134 127 123 124 120 117 112 113 116 115 127 126 110 99 109 103 98 89 85 82 80 77 80 86
321 359 270 286 126 131 125 179 152 143 138 160 101 117 121 159 152 149 141 143 141 137 138 140 144 147 137 131 123 122 124 118 117 115 115 114 119 107 102 108 110 104 96 92 86 81 78 79 84
93 57 290 313 137 134 120 180 36 50 62 83 22 136 157 160 152 152 145 148 141 146 142 144 145 146 146 142 135 128 124 127 122 121 120 120 124 125 114 115 128 122 107 99 90 84 81 75 79
131 71 270 238 295 111 143 121 25 349 115 79 47 45 139 156 154 153 152 157 153 156 154 157 149 148 151 151 147 145 139 132 126 121 112 100 117 121 128 133 139 128 117 106 91 84 79 67 64
178 138 241 336 341 49 157 193 136 161 126 125 96 87 121 146 161 167 161 168 162 173 163 165 156 159 158 161 156 157 149 142 138 129 120 124 148 151 146 150 143 134 120 104 91 89 71 63 51
197 192 160 286 346 355 153 227 117 196 173 188 166 155 143 151 172 178 174 174 175 181 170 173 170 171 166 175 152 169 153 148 165 148 154 163 179 172 160 154 146 140 120 81 74 70 88 123 110
203 210 175 225 232 358 289 298 159 234 119 93 137 157 155 165 182 187 180 178 175 183 180 179 178 180 188 177 175 178 170 184 176 181 174 170 151 149 167 144 150 175 133 181 135 98 94 83 71
210 213 177 101 127 253 38 251 247 214 199 107 99 150 165 170 187 185 183 193 183 187 196 179 184 185 190 194 185 186 175 191 190 195 184 172 182 169 171 185 181 168 185 167 174 135 71 55 66
176 209 186 156 182 205 248 211 127 234 244 133 149 163 170 179 187 184 193 196 185 187 193 197 188 191 201 203 195 197 189 188 194 208 196 182 199 187 181 190 183 187 179 184 176 168 160 264 325
79 208 163 162 209 234 202 266 219 244 138 157 181 176 171 183 182 198 199 194 191 193 192 197 193 195 196 201 203 202 211 191 191 195 215 194 193 201 195 195 190 193 182 195 197 206 190 147 319
212 253 181 200 167 198 172 253 219 221 205 208 190 210 187 184 192 196 196 201 199 194 196 195 201 194 196 197 210 201 204 215 213 194 201 215 201 201 200 205 204 202 208 185 196 223 265 274 250
213 181 201 273 185 134 183 268 242 251 211 198 224 195 190 193 193 193 194 196 202 200 197 197 198 198 197 199 200 210 206 211 223 213 199 213 214 202 206 214 216 213 208 221 222 213 228 243 237
141 200 186 208 195 192 196 242 285 305 340 210 237 249 186 179 191 204 200 197 198 200 199 201 200 204 200 199 202 205 209 214 219 219 219 205 217 213 204 213 215 214 217 220 232 242 247 261 270
174 192 199 216 151 154 238 249 241 236 241 220 244 247 238 181 186 197 201 200 199 199 200 201 199 200 200 200 200 204 206 208 211 214 219 212 216 218 212 213 221 222 216 224 235 234 228 237 251
191 171 214 351 121 174 266 261 232 219 231 216 218 240 250 201 181 183 193 199 199 200 199 198 198 202 205 204 205 205 207 210 218 215 215 216 217 217 216 217 219 223 225 232 236 233 235 238 232
218 209 187 200 152 226 293 282 238 236 239 214 216 209 240 222 201 183 183 195 200 204 201 199 201 210 204 205 204 204 207 211 213 215 217 217 216 216 219 219 220 227 234 236 233 231 231 239 243
207 220 156 200 113 241 156 285 310 279 223 218 212 211 221 230 223 200 183 191 202 209 207 207 202 203 203 203 199 199 199 204 212 212 216 221 226 221 215 223 227 227 233 236 241 244 242 241 242
191 117 100 96 279 323 235 264 269 231 260 212 214 215 216 216 217 217 194 196 203 205 207 208 208 208 205 204 204 204 205 212 210 213 216 221 223 227 221 224 228 228 231 237 238 240 242 244 243
134 114 96 105 121 265 217 206 260 213 218 217 194 201 215 219 207 210 219 208 206 205 208 210 210 212 210 207 208 207 210 211 211 214 215 218 219 226 228 226 228 229 229 230 233 234 239 243 244
155 136 125 166 200 232 348 198 237 270 120 66 303 273 310 40 233 210 199 206 205 202 207 210 210 217 219 215 213 213 215 215 215 217 215 213 215 219 228 230 229 229 231 230 228 229 232 236 241
174 167 152 179 188 201 310 229 245 244 14 130 222 262 295 272 232 267 242 205 204 203 207 209 212 218 218 219 221 221 219 222 221 223 222 223 218 222 231 235 233 231 232 231 230 232 230 231 236
199 195 128 105 94 73 201 252 288 262 218 255 267 189 240 247 217 224 230 219 201 204 208 209 211 216 216 219 222 222 222 222 223 225 227 228 226 224 229 238 239 236 235 232 229 228 229 227 224
183 155 157 208 151 234 249 233 227 206 206 215 170 179 107 58 16 347 228 203 202 210 220 227 228 228 227 220 222 225 224 227 227 226 234 234 234 234 233 229 232 232 231 229 223 221 222 224 220
156 186 184 134 171 174 155 257 206 175 166 157 116 96 72 40 47 11 76 102 168 230 235 222 224 226 228 229 225 225 223 223 225 230 232 234 234 231 231 226 223 226 225 223 216 212 216 216 207
234 191 151 169 206 210 152 267 193 136 139 130 142 134 141 159 141 90 130 176 212 224 218 215 213 216 218 218 222 223 222 224 221 230 234 236 236 239 235 230 234 232 227 217 213 206 208 202 198